Regional Weather Roundup
Issued by NWS

Home | Current Version | Previous Version | Graphics & Text | Print | Product List | Glossary On
Versions: 1 2 3 4 5 6 7 8 9 10 11 12 13 14 15 16 17 18 19 20 21 22 23 24 25 26 27 28 29 30 31 32 33 34 35 36 37 38 39 40 41 42 43 44 45 46 47 48 49 50
000
ASUS45 KBOU 191307
RWRCO

WEATHER ROUNDUP FOR COLORADO
NATIONAL WEATHER SERVICE DENVER/BOULDER CO
700 AM MDT SUN APR 19 2015

NOTE: "FAIR" INDICATES FEW OR NO CLOUDS BELOW 12000 FEET WITH NO
SIGNIFICANT WEATHER AND/OR OBSTRUCTIONS TO VISIBILITY.

COZ001>005-013-030-031-191400-
...NORTHWEST COLORADO...

CITY           SKY/WX    TMP DP  RH WIND       PRES   REMARKS
CRAIG          CLOUDY    34  31  88 CALM      30.17R
HAYDEN         CLOUDY    34  30  86 CALM      30.16R
MEEKER         CLOUDY    35  32  88 NW5       30.15S WCI  31
MOUNT WERNER   NOT AVBL
STEAMBOAT SPGS CLOUDY    32  31  98 CALM      30.15R
WALDEN         CLOUDY    28  23  80 N9        30.15R WCI  20
$$

COZ006>008-011-191400-
...WEST CENTRAL VALLEYS...

CITY           SKY/WX    TMP DP  RH WIND       PRES   REMARKS
GRAND JUNCTION PTCLDY    34  34 100 E8        30.13S WCI  27
MONTROSE       CLOUDY    35  34  96 W3        30.18R
EAGLE          CLOUDY    36  34  93 W3        30.17R
RIFLE          FOG       33  31  92 E5        30.16S VSB 1   WCI  29
DELTA          CLOUDY    37  37 100 CALM      30.18R VSB<1/4
NUCLA          PTCLDY    32  32 100 SE5       30.18R WCI  27
$$

COZ017>023-064>068-191400-
...SOUTHWEST COLORADO...

CITY           SKY/WX    TMP DP  RH WIND       PRES   REMARKS
DURANGO        PTCLDY    25  20  81 NE7       30.07R WCI  17
CORTEZ         CLEAR     31  28  89 NE3       30.09R
PAGOSA SPRINGS PTCLDY    27  22  82 CALM      30.09R
TELLURIDE      CLOUDY    30  26  86 SW3       30.16R
WOLF CREEK PAS PTCLDY    19  12  73 NE16      30.16S WCI   5
$$

COZ009-010-012-014-032>034-037-058>063-191400-
...CENTRAL COLORADO...

CITY           SKY/WX    TMP DP  RH WIND       PRES   REMARKS
ASPEN          CLOUDY    31  30  96 CALM      30.13S FOG
BUENA VISTA    PTCLDY    20  15  79 SE3       30.12R
COPPER MTN     CLOUDY    23  18  80 W17       30.15R WCI   9
BERTHOUD PASS  CLOUDY    14   7  73 NW20      30.12S WCI  -3
COTTONWOOD PAS PTCLDY    30  18  59 S3        30.12R
GUNNISON       PTCLDY    23  18  80 N5        30.17R WCI  17
KREMMLING      CLOUDY    34  23  64 NW7       30.16R WCI  28
LEADVILLE      CLOUDY    22  19  89 N6        30.11R WCI  14
MONARCH PASS     N/A     16  14  93 MISG      30.23S
SALIDA         PTCLDY    29  24  81 CALM      30.20R
SUNLIGHT       SNOW     N/A N/A N/A CALM      30.21R VSB<1/4
WILKERSON PASS FOG       21  18  86 NE12G20   30.14R VSB 1/4 WCI   9
$$

COZ069>075-191400-
...SAN LUIS VALLEY/SANGRE DE CRISTO MOUNTAINS...

CITY           SKY/WX    TMP DP  RH WIND       PRES   REMARKS
ALAMOSA        CLEAR     27  22  81 N3        30.09R
LA VETA PASS   SNOW      23  21  93 NE7       30.12R VSB 1/4 WCI  15
SAGUACHE       PTCLDY    32  25  74 N7        30.11R WCI  26
$$

COZ035-036-038>040-191400-
...NORTHERN COLORADO FRONT RANGE...

CITY           SKY/WX    TMP DP  RH WIND       PRES   REMARKS
DENVER INTL AP MOCLDY    35  28  75 N22G29    30.13R WCI  23
DMNS CITY PARK   N/A     36  27  69 N9G17     30.15R
AURORA         MOCLDY    34  30  85 N20       30.14R WCI  23
FRONT RANGE AP MOCLDY    36  30  80 N12       30.14R
ERIE MUNI ARPT CLOUDY    37  29  73 N8        30.15R
BOULDER MUN AP CLOUDY    37  32  81 E5        30.14R
CENTENNIAL     MOCLDY    35  30  82 N12       30.14R WCI  27
BROOMFIELD     CLOUDY    36  30  80 N16       30.15R
FORT COLLINS   PTCLDY    37  27  65 N20       30.15R
LONGMONT       CLOUDY    40  29  64 N5        30.16R
$$

COZ041-046-047-076>085-087-088-191400-
...PIKES PEAK/PALMER DIVIDE AND SOUTHERN FOOTHILLS...

CITY           SKY/WX    TMP DP  RH WIND       PRES   REMARKS
COLO. SPRINGS  MOCLDY    36  28  73 N25G31    30.10R
A. F. ACADEMY  LGT RAIN  32  28  86 NW18G24   30.09S WCI  20
ELLICOTT       MOCLDY   N/A N/A N/A N26G37    30.06R
FALCON         MOCLDY    32  28  84 N17G29    30.09R WCI  21
FORT CARSON    NOT AVBL
LIMON          CLOUDY    35  32  88 N32G45    30.06R WCI  21
MONUMENT HILL  CLOUDY    30  28  93 N22G29    30.10R WCI  17
TRINIDAD       LGT RAIN  39  34  82 N26G35    30.08R
$$

COZ042>045-048>051-090-091-191400-
...NORTHEAST COLORADO...

CITY           SKY/WX    TMP DP  RH WIND       PRES   REMARKS
GREELEY ARPT   CLOUDY    37  25  60 N12       30.15R
AKRON          CLOUDY    36  33  89 N21       30.07R
BURLINGTON     RAIN      41  38  89 N29G38    29.99R
WRAY           CLOUDY    43  37  80 N24G32    30.01R
STERLING       CLOUDY    37  32  81 N21       30.08R
HOLYOKE        CLOUDY    43  36  75 N25G33    30.03R
FORT MORGAN    CLOUDY    37  29  72 N20G26    30.12R
$$

COZ086-089-092>099-191400-
...SOUTHEAST COLORADO...

CITY           SKY/WX    TMP DP  RH WIND       PRES   REMARKS
PUEBLO         CLOUDY    44  30  57 N23       30.10R
LA JUNTA       CLOUDY    43  37  79 N26       30.06R
LAMAR          LGT RAIN  42  39  89 N21G29    29.97R
SPRINGFIELD      N/A     40  38  93 N26G38    29.94R
$$



USA.gov is the U.S. government's official web portal to all federal, state and local government web resources and services.